Regional Weather Roundup
Issued by NWS State College, PA

Home | Current Version | Previous Version | Text Only | Print | Product List | Glossary On
Versions: 1 2 3 4 5 6 7 8 9 10 11 12 13 14 15 16 17 18 19 20 21 22 23 24 25 26 27 28 29 30 31 32 33 34 35 36 37 38 39 40 41 42 43 44 45 46 47 48 49 50
000
ASUS41 KCTP 230410
RWRCTP

REGIONAL WEATHER ROUNDUP
NATIONAL WEATHER SERVICE STATE COLLEGE PA
1100 PM EST SUN JAN 22 2017

Note: "fair" indicates few or no clouds below 12,000 feet with no
significant weather and/or obstructions to visibility.

* = STATION THAT DOES NOT REPORT PRECIPITATION /E.G. RAIN...SNOW...ETC/
    THUNDER OR FOG.

PAZ002>004-007>009-013>016-020>023-029>032-230500-
WESTERN PENNSYLVANIA

CITY           SKY/WX    TMP DP  RH WIND       PRES   REMARKS
ERIE           FOG       40  38  93 NE10      29.62S VSB 3/4
MEADVILLE      CLOUDY    52  46  80 E7        29.58S
FRANKLIN*        N/A     52  43  71 E7        29.60S
NEW CASTLE     MOCLDY    53  47  79 E7        29.57S
BEAVER COUNTY  NOT AVBL
BUTLER*        CLOUDY    52  45  76 E12       29.60R
PITTSBURGH INT CLOUDY    53  46  77 E12       29.54R
PITTSBURGH     LGT RAIN  51  44  77 E7        29.56S
INDIANA*       CLOUDY    48  46  93 SE10G16   29.63S
LATROBE        LGT RAIN  48  48 100 NE7G16    29.58S
WASHINGTON CO* CLOUDY    52  46  82 E8        29.54S
$$

PAZ004>006-010>012-017>019-024>028-033>037-041-042-045-046-049>053-230500-
CENTRAL PENNSYLVANIA

CITY           SKY/WX    TMP DP  RH WIND       PRES   REMARKS
BRADFORD       CLOUDY    50  46  86 E8G21     29.63S
DUBOIS         CLOUDY    48  42  80 SE14      29.62R
CLEARFIELD     CLOUDY    45  44  97 NE10      29.65R
JOHNSTOWN      LGT RAIN  43  43 100 E10G17    29.58F FOG
ALTOONA        LGT RAIN  45  44  97 E7        29.63F FOG
STATE COLLEGE  CLOUDY    43  43 100 NE8       29.66F FOG
WILLIAMSPORT   CLOUDY    44  42  93 CALM      29.70R FOG
SELINSGROVE    CLOUDY    44  44 100 CALM      29.71R FOG
FT INDIANTOWN  CLOUDY    48  48 100 E15G22    29.70R
CAPITAL CITY   CLOUDY    49  47  93 SE5       29.68S FOG
HARRISBURG     DRIZZLE   50  49  96 E12       29.68S FOG
YORK           CLOUDY    48  48 100 E10       29.67R
$$

PAZ038>040-043-044-047-048-054-055-060>062-067>071-230500-
EASTERN PENNSYLVANIA

CITY           SKY/WX    TMP DP  RH WIND       PRES   REMARKS
SCRANTON       CLOUDY    50  45  83 SE6       29.72S
MOUNT POCONO   FOG       41  41 100 E9G18     29.74R VSB 1/2
ALLENTOWN      CLOUDY    49  41  74 E15G26    29.75R
QUAKERTOWN*    CLOUDY    45  45 100 E10G18    29.75R
READING        LGT RAIN  48  46  93 E9G22     29.71S
LANCASTER      CLOUDY    47  47 100 E14       29.70S
COATESVILLE    CLOUDY    45  45 100 E14G26    29.71S
POTTSTOWN      CLOUDY    45  43  93 E12G18    29.74S FOG
BLUE BELL      CLOUDY    43  43 100 E14G24    29.72S
DOYLESTOWN     CLOUDY    46  43  89 VRB6      29.74R
WILLOW GROVE   NOT AVBL
NORTH PHILA    CLOUDY    47  44  90 E16       29.75S
PHILADELPHIA   CLOUDY    47  43  86 E15G24    29.73R
$$




USA.gov is the U.S. government's official web portal to all federal, state and local government web resources and services.